TimeCDT,TemperatureF,Dew PointF,Humidity,Sea Level PressureIn,VisibilityMPH,Wind Direction,Wind SpeedMPH,Gust SpeedMPH,PrecipitationIn,Events,Conditions,WindDirDegrees,DateUTC
12:15 AM,67.3,61.2,81,29.71,10.0,SSW,4.6,-,N/A,,Scattered Clouds,210,2013-05-22 05:15:00
12:35 AM,66.4,61.2,83,29.72,10.0,SW,6.9,-,N/A,,Clear,230,2013-05-22 05:35:00
12:55 AM,65.7,61.7,87,29.72,10.0,SW,6.9,-,N/A,,Clear,220,2013-05-22 05:55:00
1:15 AM,65.3,61.3,87,29.72,10.0,SW,8.1,-,N/A,,Clear,220,2013-05-22 06:15:00
1:35 AM,66.2,61.5,85,29.71,10.0,SW,6.9,-,N/A,,Mostly Cloudy,220,2013-05-22 06:35:00
1:55 AM,66.6,61.7,84,29.71,10.0,SW,9.2,-,N/A,,Overcast,220,2013-05-22 06:55:00
2:15 AM,66.2,61.9,86,29.71,10.0,WSW,9.2,-,N/A,,Overcast,240,2013-05-22 07:15:00
2:35 AM,65.8,62.4,89,29.70,10.0,West,5.8,-,N/A,,Overcast,260,2013-05-22 07:35:00
2:55 AM,65.3,61.9,89,29.70,10.0,WSW,3.5,-,N/A,,Scattered Clouds,240,2013-05-22 07:55:00
3:15 AM,64.4,61.7,91,29.69,10.0,Calm,Calm,-,N/A,,Clear,0,2013-05-22 08:15:00
3:35 AM,64.4,62.2,93,29.69,10.0,Calm,Calm,-,N/A,,Scattered Clouds,0,2013-05-22 08:35:00
3:55 AM,64.4,62.6,94,29.69,10.0,SSE,3.5,-,N/A,,Scattered Clouds,160,2013-05-22 08:55:00
4:15 AM,64.8,62.6,93,29.69,10.0,SSW,3.5,-,N/A,,Scattered Clouds,200,2013-05-22 09:15:00
4:35 AM,64.9,62.6,92,29.69,10.0,South,3.5,-,N/A,,Mostly Cloudy,190,2013-05-22 09:35:00
4:55 AM,65.3,62.6,91,29.69,10.0,SW,5.8,-,N/A,,Mostly Cloudy,220,2013-05-22 09:55:00
5:15 AM,65.3,62.6,91,29.68,10.0,Calm,Calm,-,N/A,Rain,Light Rain,0,2013-05-22 10:15:00
5:35 AM,64.4,62.2,93,29.65,10.0,Calm,Calm,-,N/A,,Scattered Clouds,0,2013-05-22 10:35:00
5:55 AM,64.4,62.6,94,29.66,10.0,Calm,Calm,-,N/A,,Mostly Cloudy,0,2013-05-22 10:55:00
6:15 AM,64.6,63.0,94,29.69,7.0,South,5.8,-,N/A,,Overcast,180,2013-05-22 11:15:00
6:35 AM,64.8,62.6,93,29.70,10.0,SSW,6.9,-,N/A,,Overcast,210,2013-05-22 11:35:00
6:55 AM,64.9,62.1,90,29.69,10.0,SW,6.9,-,N/A,,Overcast,230,2013-05-22 11:55:00
7:15 AM,64.8,61.5,89,29.70,10.0,SW,8.1,-,N/A,,Overcast,230,2013-05-22 12:15:00
7:35 AM,64.9,61.0,87,29.70,10.0,WSW,9.2,-,N/A,,Overcast,240,2013-05-22 12:35:00
7:55 AM,63.9,60.8,90,29.71,7.0,West,8.1,-,N/A,Rain,Light Rain,260,2013-05-22 12:55:00
8:15 AM,64.4,61.0,89,29.72,10.0,WSW,8.1,-,0.01,,Mostly Cloudy,250,2013-05-22 13:15:00
8:35 AM,64.0,59.0,84,29.72,10.0,West,6.9,-,0.01,,Mostly Cloudy,260,2013-05-22 13:35:00
8:55 AM,64.8,58.3,79,29.73,10.0,West,5.8,-,0.01,,Mostly Cloudy,260,2013-05-22 13:55:00
9:15 AM,65.5,58.3,77,29.73,10.0,WSW,5.8,-,N/A,,Scattered Clouds,250,2013-05-22 14:15:00
9:35 AM,66.9,58.3,74,29.73,10.0,WSW,6.9,-,N/A,,Clear,250,2013-05-22 14:35:00
9:55 AM,68.4,57.4,68,29.72,10.0,SW,8.1,-,N/A,,Clear,220,2013-05-22 14:55:00
10:15 AM,69.8,55.9,61,29.73,10.0,WSW,9.2,-,N/A,,Clear,250,2013-05-22 15:15:00
10:35 AM,70.7,55.2,58,29.73,10.0,WSW,10.4,-,N/A,,Clear,240,2013-05-22 15:35:00
10:55 AM,71.8,56.5,58,29.74,10.0,SW,15.0,19.6,N/A,,Clear,230,2013-05-22 15:55:00
11:15 AM,71.8,55.6,57,29.74,10.0,SW,13.8,-,N/A,,Scattered Clouds,220,2013-05-22 16:15:00
11:35 AM,73.0,56.7,56,29.74,10.0,SW,15.0,20.7,N/A,,Scattered Clouds,230,2013-05-22 16:35:00
11:55 AM,71.2,54.0,54,29.74,10.0,WSW,11.5,17.3,N/A,,Mostly Cloudy,250,2013-05-22 16:55:00
12:15 PM,71.8,54.5,54,29.74,10.0,WSW,10.4,16.1,N/A,,Mostly Cloudy,240,2013-05-22 17:15:00
12:35 PM,71.2,54.3,55,29.75,10.0,SW,15.0,19.6,N/A,,Mostly Cloudy,230,2013-05-22 17:35:00
12:55 PM,72.0,55.0,55,29.75,10.0,SW,16.1,-,N/A,,Scattered Clouds,220,2013-05-22 17:55:00
1:15 PM,71.6,54.3,54,29.75,10.0,SW,13.8,20.7,N/A,,Scattered Clouds,230,2013-05-22 18:15:00
1:35 PM,72.0,54.3,54,29.75,10.0,SW,10.4,-,N/A,,Mostly Cloudy,230,2013-05-22 18:35:00
1:55 PM,72.1,54.3,53,29.75,10.0,WSW,8.1,16.1,N/A,,Mostly Cloudy,240,2013-05-22 18:55:00
2:15 PM,73.2,54.9,52,29.75,10.0,West,15.0,20.7,N/A,,Scattered Clouds,260,2013-05-22 19:15:00
2:35 PM,73.2,54.5,52,29.75,10.0,WSW,17.3,21.9,N/A,,Scattered Clouds,250,2013-05-22 19:35:00
2:55 PM,73.8,54.7,51,29.75,10.0,West,16.1,23.0,N/A,,Scattered Clouds,260,2013-05-22 19:55:00
3:15 PM,72.1,54.5,54,29.76,10.0,WSW,15.0,23.0,N/A,,Mostly Cloudy,250,2013-05-22 20:15:00
3:35 PM,71.1,54.1,55,-9999,10.0,WSW,16.1,24.2,N/A,,Overcast,250,2013-05-22 20:35:00
3:55 PM,72.0,54.7,54,29.76,10.0,West,16.1,24.2,N/A,,Mostly Cloudy,260,2013-05-22 20:55:00
4:15 PM,71.2,54.0,54,29.76,10.0,WSW,16.1,23.0,N/A,,Scattered Clouds,250,2013-05-22 21:15:00
4:35 PM,69.8,53.6,56,29.76,10.0,WSW,16.1,24.2,N/A,,Mostly Cloudy,250,2013-05-22 21:35:00
4:55 PM,70.5,54.1,56,29.77,10.0,WSW,16.1,23.0,N/A,,Mostly Cloudy,250,2013-05-22 21:55:00
5:15 PM,69.8,54.0,57,29.77,10.0,West,15.0,23.0,N/A,,Scattered Clouds,260,2013-05-22 22:15:00
5:35 PM,68.5,54.1,60,29.78,10.0,West,17.3,21.9,N/A,,Mostly Cloudy,260,2013-05-22 22:35:00
5:55 PM,67.1,53.4,61,29.79,10.0,West,11.5,21.9,N/A,,Overcast,260,2013-05-22 22:55:00
6:15 PM,66.4,52.7,61,29.79,10.0,West,12.7,-,N/A,,Overcast,270,2013-05-22 23:15:00
6:35 PM,65.7,52.9,63,29.79,10.0,West,11.5,20.7,N/A,,Overcast,270,2013-05-22 23:35:00
6:55 PM,65.3,52.9,64,29.80,10.0,West,11.5,-,N/A,,Overcast,270,2013-05-22 23:55:00
7:15 PM,64.9,52.7,64,29.80,10.0,West,11.5,18.4,N/A,,Overcast,260,2013-05-23 00:15:00
7:35 PM,64.6,53.1,66,29.81,10.0,West,9.2,-,N/A,,Overcast,260,2013-05-23 00:35:00
7:55 PM,64.4,53.6,68,29.81,10.0,WSW,9.2,-,N/A,,Overcast,250,2013-05-23 00:55:00
8:15 PM,64.4,53.6,68,29.82,10.0,West,9.2,-,N/A,,Overcast,260,2013-05-23 01:15:00
8:35 PM,64.0,53.6,69,29.82,10.0,West,8.1,-,N/A,,Overcast,260,2013-05-23 01:35:00
8:55 PM,63.3,53.2,70,29.82,10.0,West,8.1,-,N/A,,Mostly Cloudy,270,2013-05-23 01:55:00
9:15 PM,63.0,53.2,71,29.83,10.0,West,8.1,-,N/A,,Mostly Cloudy,260,2013-05-23 02:15:00
9:35 PM,63.0,53.1,70,29.84,10.0,West,9.2,-,N/A,,Overcast,260,2013-05-23 02:35:00
9:55 PM,63.0,52.7,69,29.84,10.0,West,8.1,-,N/A,,Overcast,260,2013-05-23 02:55:00
10:15 PM,62.6,52.9,70,29.85,10.0,West,8.1,-,N/A,,Overcast,260,2013-05-23 03:15:00
10:35 PM,62.4,52.9,71,29.85,10.0,West,8.1,-,N/A,,Overcast,260,2013-05-23 03:35:00
10:55 PM,61.9,52.9,72,29.86,10.0,West,6.9,-,N/A,,Overcast,260,2013-05-23 03:55:00
11:15 PM,61.5,52.7,73,29.86,10.0,WSW,5.8,-,N/A,,Mostly Cloudy,250,2013-05-23 04:15:00
11:35 PM,61.9,52.9,72,29.86,10.0,WSW,5.8,-,N/A,,Overcast,250,2013-05-23 04:35:00
11:55 PM,61.9,52.7,72,29.86,10.0,West,8.1,-,N/A,,Overcast,260,2013-05-23 04:55:00